Regional Weather Roundup
Issued by NWS

Home | Current Version | Previous Version | Text Only | Print | Product List | Glossary Off
Versions: 1 2 3 4 5 6 7 8 9 10 11 12 13 14 15 16 17 18 19 20 21 22 23 24 25 26 27 28 29 30 31 32 33 34 35 36 37 38 39 40 41 42 43 44 45 46 47 48 49 50

000
ASUS43 KMPX 300810
RWRMN
WEATHER ROUNDUP FOR MINNESOTA
NATIONAL WEATHER SERVICE TWIN CITIES/CHANHASSEN MN
300 AM CDT SAT APR 30 2016


NOTE: "FAIR" INDICATES FEW OR NO CLOUDS BELOW 12,000 FEET WITH NO
SIGNIFICANT WEATHER AND/OR OBSTRUCTIONS TO VISIBILITY. N/A MEANS
CURRENT SKY AND/OR WEATHER CONDITIONS ARE NOT AVAILABLE.

MNZ060>063-068>070-300900-
   Twin Cities Metro

CITY           SKY/WX    TMP DP  RH WIND       PRES   REMARKS
TWIN CITIES    CLOUDY    46  32  58 NE10      30.10F
ST PAUL        PTCLDY    45  33  63 NE9       30.12F
CRYSTAL        CLOUDY    45  32  60 NE5       30.10F
BLAINE         CLOUDY    45  34  65 NE7       30.11F
EDEN PRAIRIE   CLOUDY    48  33  56 NE10      30.08F
SOUTH ST PAUL  CLOUDY    46  33  61 N3        30.10F
LAKE ELMO      FAIR      43  34  70 NE8       30.11F
$$
MNZ001>005-007-008-013>017-022>024-027-028-300900-
   Northwest Minnesota

CITY           SKY/WX    TMP DP  RH WIND       PRES   REMARKS
BEMIDJI        CLEAR     38  32  79 E6        30.21S
HALLOCK        CLEAR     41  30  65 NE8       30.23R
ROSEAU         PTCLDY    36  30  80 E6        30.26R
WARROAD        PTCLDY    36  32  87 NE3       30.27R
THIEF RVR FALL CLEAR     41  30  65 E10       30.23R
CROOKSTON      CLEAR     43  32  65 E8        30.21R
FOSSTON        CLEAR     39  30  70 E7        30.21R
DETROIT LAKES  CLEAR     45  32  61 E9        30.19R
MOORHEAD       CLEAR     46  34  61 E8        30.17R
PARK RAPIDS    CLEAR     43  29  57 E3        30.19R
MAHNOMEN       FAIR      41  32  70 E5        30.18S
$$
MNZ006-009>011-018-025>026-300900-
   North Central Minnesota

CITY           SKY/WX    TMP DP  RH WIND       PRES   REMARKS
BAUDETTE       CLEAR     36  29  75 E5        30.26R
FLAG ISLAND    PTCLDY    43  30  61 E5        30.27R
INTL FALLS     CLEAR     31  27  85 E3        30.26S
WASKISH        CLEAR     37  32  81 E3        30.25R
BIG FORK       CLEAR     36  30  80 NE3       30.24R
LONGVILLE      CLEAR     36  30  80 CALM      30.20S
GRAND RAPIDS   CLEAR     37  27  65 CALM      30.23S
CRANE LAKE     CLEAR     27  25  93 CALM      30.28S
ORR            CLEAR     30  27  86 CALM      30.22S
COOK           CLEAR     28  27  93 CALM      30.24S
WALKER         FAIR      42  31  65 E7        30.21S
$$
MNZ012-019>021-037-300900-
   Northeast Minnesota

CITY           SKY/WX    TMP DP  RH WIND       PRES   REMARKS
DULUTH         CLEAR     36  28  73 E10       30.21S
ELY            PTCLDY    36  30  80 CALM      30.24S
HIBBING        CLEAR     36  29  75 NE5       30.23R
EVELETH        CLEAR     36  32  87 CALM      30.24R
DULUTH HARBOR  CLEAR     37  36  93 NE12      30.24S
TWO HARBORS    CLEAR     36  28  75 NE6       30.22S
SILVER BAY     CLEAR     37  28  70 NE5       30.23R
GRAND MARAIS     N/A     45  28  51 NE6       30.25F
G MARAIS ARPRT CLOUDY    37  25  60 NE8       30.24S
$$
MNZ029>031-032-039>041-046>048-054>057-064-300900-
   West Central Minnesota

CITY           SKY/WX    TMP DP  RH WIND       PRES   REMARKS
FERGUS FALLS   CLEAR     45  34  65 E7        30.14R
WHEATON        CLEAR     43  36  75 E9        30.14S
MORRIS         CLEAR     45  36  70 E13       30.11F
ALEXANDRIA     CLEAR     42  32  67 E12       30.16R
ELBOW LAKE     FAIR      44  34  67 SE13      30.15R
WADENA         CLEAR     39  30  70 E6        30.19R
GLENWOOD       CLEAR     39  34  81 E10       30.15S
APPLETON       CLEAR     43  34  70 NE7       30.09F
BENSON         CLEAR     45  34  65 E12G17    30.11F
ORTONVILLE     PTCLDY    43  36  75 E8        30.10F
MADISON        PTCLDY    37  36  93 E5        30.09S
WILLMAR        FAIR      46  36  66 E13       30.12F
$$
MNZ033>034-036-042>043-049>051-058-059-300900-
   Central Minnesota

CITY           SKY/WX    TMP DP  RH WIND       PRES   REMARKS
ST CLOUD       CLEAR     41  31  67 NE7       30.14F
SAUK CENTRE    FAIR      41  32  70 E8        30.16S
PAYNESVILLE    CLEAR     44  32  63 E9        30.14F
AITKIN         CLEAR     34  28  80 CALM      30.20R
PINE RIVER     CLEAR     39  30  70 CALM      30.24R
BRAINERD       CLEAR     38  29  70 NE5       30.20R
STAPLES        PTCLDY    39  28  65 E3        30.19R
LONG PRAIRIE   FAIR      41  30  65 NE8       30.17S
LITTLE FALLS   CLEAR     41  30  65 NE5       30.18S
LITCHFIELD     CLEAR     45  37  76 NE7       30.12F
BUFFALO        CLOUDY    43  32  66 NE8       30.13F
MAPLE LAKE     CLEAR     43  35  72 N6        30.13F
HUTCHINSON     CLEAR     43  39  86 NE6       30.12R
$$
MNZ037-044-045-052-053-300900-
   East Central Minnesota

CITY           SKY/WX    TMP DP  RH WIND       PRES   REMARKS
PRINCETON      CLEAR     41  32  70 N7        30.15F
MORA           CLEAR     36  30  80 NE3       30.19S
CAMBRIDGE      CLOUDY    43  30  61 N6        30.13F
RUSH CITY      CLOUDY    37  31  77 NE7       30.16F
MOOSE LAKE     CLEAR     34  30  86 NE5       30.19R WCI  30
HINCKLEY       FAIR      36  32  87 N8        30.18F
CLOQUET        CLEAR     36  28  75 E3        30.21R
MCGREGOR       CLEAR     37  32  81 CALM      30.22R
$$
MNZ071>073-080-081-089-090-097-098-300900-
   Southwest Minnesota

CITY           SKY/WX    TMP DP  RH WIND       PRES   REMARKS
MONTEVIDEO     PTCLDY    39  36  87 SE7       30.11S
GRANITE FALLS  PTCLDY    42  39  88 NE5       30.09F
CANBY          PTCLDY    37  37  99 CALM      30.08F
MARSHALL       CLOUDY    38  37  97 NE6       30.07F
REDWOOD FALLS  MOCLDY    42  38  85 E6        30.08F
OLIVIA         CLOUDY    41  36  81 E5        30.09S
PIPESTONE      PTCLDY    43  37  81 E6        30.01F
WINDOM         CLOUDY    43  39  87 NE10      30.02F
WORTHINGTON    CLOUDY    41  38  89 NE13      30.01F
JACKSON        CLOUDY    45  37  76 E14G20    30.02F
TRACY          CLOUDY    38  37  97 NE6       30.05F
SLAYTON        PTCLDY    41  39  92 NE10      30.03F
$$
MNZ065>067-074>077-082>085-091>093-300900-
   South Central Minnesota

CITY           SKY/WX    TMP DP  RH WIND       PRES   REMARKS
MANKATO        CLOUDY    45  37  76 NE7       30.07F
NEW ULM        CLOUDY    45  39  81 NE3       30.08S
ST JAMES       PTCLDY    37  34  87 N7        30.06F
FAIRMONT       CLOUDY    43  30  61 NE9       30.03F
GLENCOE        CLOUDY    46  42  88 CALM      30.09F
FARIBAULT      CLOUDY    43  39  87 N3        30.10S
OWATONNA       CLOUDY    43  37  81 E6        30.07F
WASECA         CLOUDY    41  36  81 NE6       30.08F
ALBERT LEA     CLOUDY    43  39  87 NE9       30.04F
$$
MNZ078>079-086>088-094>096-300900-
   Southeast Minnesota

CITY           SKY/WX    TMP DP  RH WIND       PRES   REMARKS
ROCHESTER      CLOUDY    41  38  89 NE8       30.06F
RED WING       CLOUDY    45  37  76 CALM      30.09F
STANTON        CLOUDY    42  39  89 E3        30.09S
DODGE CENTER   CLOUDY    39  37  93 NE8       30.06F
WINONA         CLOUDY    41  37  87 CALM      30.11S
AUSTIN         CLOUDY    43  37  81 NE7       30.04F
PRESTON        CLOUDY    40  37  86 NE7       30.06F
$$
ABBREVIATIONS USED IN REMARKS
   TC - TEMPERATURES IN CELSIUS
  WCI - WIND CHILL INDEX
   HX - HEAT INDEX
  VSB - VISIBILITY
$$




USA.gov is the U.S. government's official web portal to all federal, state and local government web resources and services.